Location: Wanzleben
(52.0609°N, 11.4408°E)
Time: 02:55:17
(UTC+00:00)

COSMOS 2406 - Pass Details

Date: 22 January 2021
Orbit: 841 x 865 km, 71.0° (Epoch: 05 March)

Event Time Altitude Azimuth Distance (km) Brightness Sun altitude
Rises 18:44:45 0° 327° (NNW) 3,460 6.9 -27.3°
Reaches altitude 10° 18:47:14 10° 325° (NW) 2,519 6.1 -27.7°
Maximum altitude 18:52:58 66° 245° (WSW) 941 3.5 -28.5°
Enters shadow 18:54:15 51° 189° (S) 1,074 3.6 -28.7°
